CW7114 Weather Reports


Display with metric or nautical units.
time (UTC)temp
F
wind
direction
speed
MPH
gust
MPH
rain 1hr
in
rain 24hr
in
rain mn
in
humidity
%
barometer
mb
20260505113341 55 142 0.0 0.0 0.00 0.00 0.00 81 1016.2
20260505013319 67 180 0.0 4.0 0.00 0.00 0.00 47 1014.8
20260505011814 67 183 0.0 3.0 0.00 0.00 0.00 44 1014.5
20260505010316 69 186 0.0 0.0 0.00 0.00 0.00 41 1014.3
20260505004815 69 186 0.0 0.0 0.00 0.00 0.00 42 1014.1
20260505003315 70 186 0.0 0.0 0.00 0.00 0.00 38 1013.8
20260505001814 72 186 0.0 0.0 0.00 0.00 0.00 36 1013.7
20260505000316 72 185 0.0 0.0 0.00 0.00 0.00 35 1013.6
20260504234814 73 179 0.0 0.0 0.00 0.00 0.00 34 1013.5
20260504233331 74 180 0.0 3.0 0.00 0.00 0.00 32 1013.3
20260504231814 75 198 2.0 8.0 0.00 0.00 0.00 31 1013.3
20260504230331 76 170 2.0 7.0 0.00 0.00 0.00 31 1013.3
20260504224814 77 177 1.0 8.0 0.00 0.00 0.00 30 1013.3
20260504223330 77 214 3.0 7.0 0.00 0.00 0.00 28 1013.2
20260504221814 78 172 2.0 8.0 0.00 0.00 0.00 29 1013.2
20260504220313 78 165 0.0 9.0 0.00 0.00 0.00 28 1013.2
20260504214813 79 179 3.0 6.0 0.00 0.00 0.00 27 1013.0
20260504213330 79 178 0.0 5.0 0.00 0.00 0.00 26 1013.2
20260504211831 79 176 1.0 6.0 0.00 0.00 0.00 27 1013.2
20260504210328 79 178 1.0 5.0 0.00 0.00 0.00 27 1013.1
20260504204825 79 243 0.0 5.0 0.00 0.00 0.00 26 1013.3
20260504203326 79 164 0.0 6.0 0.00 0.00 0.00 26 1013.5
20260504201823 79 183 2.0 5.0 0.00 0.00 0.00 25 1013.7
20260504200343 79 155 1.0 8.0 0.00 0.00 0.00 27 1013.8
20260504194819 79 205 1.0 9.0 0.00 0.00 0.00 27 1013.9
20260504193319 79 149 0.0 5.0 0.00 0.00 0.00 28 1014.1
20260504191815 78 168 4.0 11.0 0.00 0.00 0.00 27 1014.3
20260504190315 80 191 0.0 3.0 0.00 0.00 0.00 27 1014.5
20260504184814 78 224 2.0 7.0 0.00 0.00 0.00 26 1014.8
20260504183350 78 280 0.0 4.0 0.00 0.00 0.00 24 1014.9
20260504181831 78 176 1.0 6.0 0.00 0.00 0.00 22 1015.1
20260504180328 76 174 0.0 9.0 0.00 0.00 0.00 28 1015.3
20260504174829 77 257 1.0 8.0 0.00 0.00 0.00 26 1015.4
20260504173326 76 166 3.0 9.0 0.00 0.00 0.00 23 1015.5
20260504171828 76 338 2.0 5.0 0.00 0.00 0.00 25 1015.8
20260504170324 75 182 2.0 6.0 0.00 0.00 0.00 28 1015.8
20260504160319 73 198 1.0 7.0 0.00 0.00 0.00 34 1016.4
20260504150316 71 232 0.0 5.0 0.00 0.00 0.00 40 1016.9
20260504140332 68 188 0.0 3.0 0.00 0.00 0.00 45 1016.9
20260504130314 62 156 1.0 3.0 0.00 0.00 0.00 65 1016.7
20260504120314 55 135 0.0 0.0 0.00 0.00 0.00 79 1016.8